Denison, IA

12:53 AM CDT on September 26, 2016 (GMT -0500)
Denison Municipal

Weather History for KDNS - October, 2012

Change the Weather History Date:

Monday, October 8, 2012

  Actual Average Record
Temperature  
Mean Temperature 54 °F -  
Max Temperature 69 °F 66 °F 91 °F (2010)
Min Temperature 39 °F 44 °F 17 °F (2000)
Degree Days  
Heating Degree Days 11    
Growing Degree Days 4 (Base 50)    
Moisture  
Dew Point 30 °F    
Average Humidity 48    
Maximum Humidity 75    
Minimum Humidity 21    
Precipitation  
Precipitation 0.00 in - - ()
Sea Level Pressure  
Sea Level Pressure 29.87 in    
Wind  
Wind Speed 11 mph (SSW)    
Max Wind Speed 24 mph    
Max Gust Speed 34 mph    
Visibility 10 miles    
Events      
Averages and records for this station are not official NWS values.
T = Trace of Precipitation, MM = Missing Value Source: NWS Daily Summary

Daily Weather History Graph

Daily Weather History Graph

Search for Another Location

Airport or City:

Trip Planner

Search our weather history database for the weather conditions in past years. The results will help you decide how hot, cold, wet, or windy it might be!

Date:

Astronomy

Oct. 08, 2012 Rise Set
Actual Time 7:26 AM CDT 6:50 PM CDT
Civil Twilight 6:58 AM CDT 7:18 PM CDT
Nautical Twilight 6:26 AM CDT 7:50 PM CDT
Astronomical Twilight 5:53 AM CDT 8:22 PM CDT
Moon 12:00 AM CDT (10/8) 2:46 PM CDT (10/8)
Length of Visible Light 12h 19m
Length of Day
11h 23m
Last Quarter, 46% of the Moon is Illuminated
Oct 8
Last Quarter
Oct 15
New
Oct 21
First Quarter
Oct 29
Full
Nov 6
Last Quarter

Hourly Weather History & Observations

Time (CDT) Temp. Windchill Dew Point Humidity Pressure Visibility Wind Dir Wind Speed Gust Speed Precip Events Conditions
12:15 AM 41.0 °F 35.2 °F 26.6 °F 57% 29.99 in 10.0 mi South 9.2 mph - N/A   Clear
12:35 AM 41.0 °F 35.2 °F 26.6 °F 57% 29.98 in 10.0 mi South 9.2 mph - N/A   Clear
12:55 AM 39.2 °F 33.6 °F 26.6 °F 61% 29.98 in 10.0 mi South 8.1 mph - N/A   Clear
1:15 AM 39.2 °F 33.6 °F 26.6 °F 61% 29.98 in 10.0 mi South 8.1 mph - N/A   Clear
1:35 AM 39.2 °F 33.6 °F 26.6 °F 61% 29.98 in 10.0 mi South 8.1 mph - N/A   Clear
1:55 AM 39.2 °F 33.0 °F 28.4 °F 65% 29.97 in 10.0 mi SSW 9.2 mph - N/A   Clear
2:15 AM 39.2 °F 33.0 °F 28.4 °F 65% 29.97 in 10.0 mi South 9.2 mph - N/A   Clear
2:35 AM 39.2 °F 33.6 °F 28.4 °F 65% 29.97 in 10.0 mi South 8.1 mph - N/A   Clear
2:55 AM 39.2 °F 33.0 °F 30.2 °F 70% 29.96 in 10.0 mi South 9.2 mph - N/A   Clear
3:15 AM 39.2 °F 33.0 °F 30.2 °F 70% 29.95 in 10.0 mi SSW 9.2 mph - N/A   Clear
3:35 AM 39.2 °F 32.5 °F 30.2 °F 70% 29.94 in 10.0 mi South 10.4 mph - N/A   Clear
3:55 AM 39.2 °F 32.0 °F 30.2 °F 70% 29.94 in 10.0 mi South 11.5 mph 17.3 mph N/A   Clear
4:15 AM 39.2 °F 32.5 °F 32.0 °F 75% 29.94 in 10.0 mi SSW 10.4 mph - N/A   Clear
4:35 AM 39.2 °F 32.5 °F 32.0 °F 75% 29.93 in 10.0 mi SSW 10.4 mph - N/A   Clear
4:55 AM 39.2 °F 33.0 °F 32.0 °F 75% 29.93 in 10.0 mi SSW 9.2 mph - N/A   Clear
5:15 AM 39.2 °F 34.2 °F 32.0 °F 75% 29.93 in 10.0 mi SSW 6.9 mph 13.8 mph N/A   Clear
5:35 AM 39.2 °F 32.5 °F 32.0 °F 75% 29.93 in 10.0 mi SSW 10.4 mph - N/A   Clear
5:55 AM 39.2 °F 33.0 °F 32.0 °F 75% 29.93 in 10.0 mi SSW 9.2 mph - N/A   Clear
6:15 AM 39.2 °F 33.0 °F 32.0 °F 75% 29.93 in 10.0 mi SSW 9.2 mph - N/A   Clear
6:35 AM 39.2 °F 33.6 °F 32.0 °F 75% 29.92 in 10.0 mi South 8.1 mph - N/A   Clear
6:55 AM 39.2 °F 33.6 °F 32.0 °F 75% 29.92 in 10.0 mi SSW 8.1 mph - N/A   Clear
7:15 AM 39.2 °F 33.6 °F 32.0 °F 75% 29.92 in 10.0 mi SSW 8.1 mph 15.0 mph N/A   Clear
7:35 AM 39.2 °F 33.6 °F 32.0 °F 75% 29.92 in 10.0 mi SSW 8.1 mph - N/A   Clear
7:55 AM 39.2 °F 33.0 °F 32.0 °F 75% 29.92 in 10.0 mi South 9.2 mph - N/A   Clear
8:15 AM 39.2 °F 32.0 °F 32.0 °F 75% 29.91 in 10.0 mi South 11.5 mph - N/A   Clear
8:35 AM 41.0 °F 35.2 °F 32.0 °F 70% 29.92 in 10.0 mi SSW 9.2 mph 16.1 mph N/A   Clear
8:55 AM 42.8 °F 36.2 °F 32.0 °F 66% 29.91 in 10.0 mi SSW 12.7 mph - N/A   Clear
9:15 AM 44.6 °F 39.2 °F 32.0 °F 61% 29.90 in 10.0 mi SSW 10.4 mph 17.3 mph N/A   Clear
9:35 AM 46.4 °F 41.9 °F 32.0 °F 57% 29.90 in 10.0 mi SSW 9.2 mph 19.6 mph N/A   Clear
9:55 AM 50.0 °F - 32.0 °F 50% 29.90 in 10.0 mi SSW 11.5 mph - N/A   Clear
10:15 AM 51.8 °F - 32.0 °F 47% 29.90 in 10.0 mi SSW 15.0 mph 20.7 mph N/A   Clear
10:35 AM 55.4 °F - 32.0 °F 41% 29.89 in 9.0 mi SSW 16.1 mph 23.0 mph N/A   Clear
10:55 AM 55.4 °F - 30.2 °F 38% 29.89 in 10.0 mi SSW 12.7 mph 25.3 mph N/A   Clear
11:15 AM 57.2 °F - 30.2 °F 36% 29.88 in 10.0 mi SSW 16.1 mph 23.0 mph N/A   Clear
11:35 AM 59.0 °F - 28.4 °F 31% 29.87 in 10.0 mi SW 16.1 mph 29.9 mph N/A   Clear
11:55 AM 59.0 °F - 30.2 °F 34% 29.86 in 10.0 mi SSW 17.3 mph 26.5 mph N/A   Clear
12:15 PM 60.8 °F - 28.4 °F 29% 29.86 in 10.0 mi SW 16.1 mph 27.6 mph N/A   Clear
12:35 PM 62.6 °F - 28.4 °F 27% 29.85 in 10.0 mi SW 20.7 mph 28.8 mph N/A   Clear
12:55 PM 62.6 °F - 28.4 °F 27% 29.83 in 10.0 mi SSW 20.7 mph 32.2 mph N/A   Clear
1:35 PM 66.2 °F - 26.6 °F 23% 29.81 in 10.0 mi SW 19.6 mph 34.5 mph N/A   Clear
1:55 PM 66.2 °F - 26.6 °F 23% 29.80 in 10.0 mi SSW 21.9 mph 33.4 mph N/A   Clear
2:15 PM 66.2 °F - 28.4 °F 24% 29.79 in 10.0 mi SSW 21.9 mph 34.5 mph N/A   Clear
2:35 PM 66.2 °F - 28.4 °F 24% 29.79 in 10.0 mi SW 19.6 mph 28.8 mph N/A   Clear
2:55 PM 68.0 °F - 28.4 °F 23% 29.78 in 10.0 mi SSW 24.2 mph 31.1 mph N/A   Clear
3:15 PM 68.0 °F - 28.4 °F 23% 29.78 in 10.0 mi SSW 21.9 mph 31.1 mph N/A   Clear
3:35 PM 69.8 °F - 28.4 °F 21% 29.78 in 10.0 mi SSW 16.1 mph 28.8 mph N/A   Clear
3:55 PM 68.0 °F - 28.4 °F 23% 29.78 in 10.0 mi SSW 20.7 mph 29.9 mph N/A   Clear
4:35 PM 68.0 °F - 26.6 °F 21% 29.76 in 10.0 mi SW 17.3 mph 27.6 mph N/A   Partly Cloudy
4:55 PM 68.0 °F - 26.6 °F 21% 29.76 in 10.0 mi SW 19.6 mph 28.8 mph N/A   Scattered Clouds
5:15 PM 68.0 °F - 28.4 °F 23% 29.76 in 10.0 mi SW 12.7 mph 28.8 mph N/A   Partly Cloudy
5:35 PM 68.0 °F - 28.4 °F 23% 29.76 in 10.0 mi SSW 15.0 mph 24.2 mph N/A   Partly Cloudy
5:55 PM 68.0 °F - 28.4 °F 23% 29.76 in 10.0 mi SSW 12.7 mph 24.2 mph N/A   Clear
6:15 PM 66.2 °F - 28.4 °F 24% 29.75 in 10.0 mi SSW 12.7 mph 18.4 mph N/A   Partly Cloudy
6:55 PM 66.2 °F - 30.2 °F 26% 29.76 in 10.0 mi SSW 16.1 mph - N/A   Mostly Cloudy
7:15 PM 64.4 °F - 30.2 °F 28% 29.76 in 10.0 mi SSW 13.8 mph 19.6 mph N/A   Partly Cloudy
7:35 PM 62.6 °F - 30.2 °F 30% 29.76 in 10.0 mi South 12.7 mph 19.6 mph N/A   Clear
7:55 PM 62.6 °F - 30.2 °F 30% 29.76 in 10.0 mi South 15.0 mph - N/A   Scattered Clouds
8:15 PM 60.8 °F - 30.2 °F 31% 29.76 in 10.0 mi South 13.8 mph - N/A   Scattered Clouds
8:35 PM 60.8 °F - 30.2 °F 31% 29.77 in 10.0 mi South 9.2 mph 17.3 mph N/A   Mostly Cloudy
9:15 PM 59.0 °F - 30.2 °F 34% 29.81 in 10.0 mi West 10.4 mph - N/A   Mostly Cloudy
9:35 PM 59.0 °F - 30.2 °F 34% 29.80 in - SSW 9.2 mph 16.1 mph N/A   Scattered Clouds
9:55 PM 59.0 °F - 30.2 °F 34% 29.80 in 10.0 mi South 10.4 mph 16.1 mph N/A   Clear
10:15 PM 57.2 °F - 30.2 °F 36% 29.80 in 10.0 mi South 8.1 mph - N/A   Scattered Clouds
10:55 PM 53.6 °F - 32.0 °F 44% 29.82 in 10.0 mi West 4.6 mph - N/A   Overcast
11:35 PM 53.6 °F - 32.0 °F 44% 29.83 in 10.0 mi North 3.5 mph - N/A   Overcast
11:55 PM 53.6 °F - 37.4 °F 54% 29.83 in 10.0 mi NE 5.8 mph - N/A   Overcast